User: anonymous   Login
Location: Plymouth
(43.7570°N, 71.6890°W)
Time: 15:06:44
(UTC-05:00)
Language:

Cosmos 2016 Rocket - Orbit

View from above orbital plane
View from above orbital plane
View from above satellite
View from above satellite

Ground track
Ground track

The orbit data is extracted from the following two-line orbital elements,

1 19922U 89028B   14327.53865262  .00000092  00000-0  77211-4 0  1168
2 19922 082.9609 041.5740 0035787 351.2131 137.9990 13.77119702288314
Epoch (UTC): 23 November 2014 12:55:39
Eccentricity: 0.0035787
inclination: 82.9609°
perigee height: 948 km
apogee height: 1000 km
right ascension of ascending node: 41.5740°
argument of perigee: 351.2131°
revolutions per day: 13.77119702
mean anomaly at epoch: 137.9990°
orbit number at epoch: 28831

The dashed part of the orbit path shows where the satellite is in the earth's shadow,  

DLR